BAW2524 EGKK-EGJJ

Flight info

Callsign BAW2524
Flight time 0h 28m
Altitude 24000
Route IMVUR N63 LELNA
Aircraft A20N/M-SDE2E3FGHIRWXY/LB1

Departure

Time 2026-05-07 16:59
Airport London Gatwick Airport (EGKK)

Arrival

Time 2026-05-07 17:27
Airport Jersey Airport (EGJJ)
Time Latitude Longitude Altitude Speed Heading
2026-05-07 16:40 51.15485 -0.16967 205 ft 0 kts 348°
2026-05-07 16:50 51.15469 -0.16962 211 ft 4 kts 348°
2026-05-07 16:50 51.15449 -0.16952 208 ft 2 kts 320°
2026-05-07 16:50 51.15438 -0.16931 213 ft 2 kts 288°
2026-05-07 16:51 51.15436 -0.16915 204 ft 0 kts 262°
2026-05-07 16:51 51.15436 -0.16914 204 ft 0 kts 260°
2026-05-07 16:52 51.15434 -0.16935 213 ft 4 kts 260°
2026-05-07 16:53 51.15423 -0.17016 204 ft 11 kts 258°
2026-05-07 16:53 51.15395 -0.17167 210 ft 17 kts 242°
2026-05-07 16:53 51.15350 -0.17353 206 ft 18 kts 224°
2026-05-07 16:53 51.15292 -0.17509 209 ft 19 kts 261°
2026-05-07 16:54 51.15263 -0.17731 207 ft 23 kts 258°
2026-05-07 16:54 51.15225 -0.18005 212 ft 28 kts 257°
2026-05-07 16:54 51.15185 -0.18322 213 ft 30 kts 262°
2026-05-07 16:54 51.15143 -0.18642 211 ft 29 kts 257°
2026-05-07 16:55 51.15098 -0.18961 208 ft 30 kts 257°
2026-05-07 16:55 51.15054 -0.19286 216 ft 30 kts 258°
2026-05-07 16:55 51.15008 -0.19615 208 ft 30 kts 257°
2026-05-07 16:55 51.14964 -0.19943 206 ft 29 kts 258°
2026-05-07 16:56 51.14921 -0.20257 204 ft 29 kts 257°
2026-05-07 16:56 51.14873 -0.20582 213 ft 31 kts 258°
2026-05-07 16:56 51.14805 -0.21089 206 ft 18 kts 258°
2026-05-07 16:57 51.14769 -0.21287 210 ft 19 kts 258°
2026-05-07 16:57 51.14712 -0.21407 213 ft 13 kts 180°
2026-05-07 16:57 51.14636 -0.21337 207 ft 13 kts 162°
2026-05-07 16:57 51.14548 -0.21287 212 ft 14 kts 146°
2026-05-07 16:58 51.14523 -0.21148 206 ft 14 kts 79°
2026-05-07 16:58 51.14568 -0.20835 211 ft 59 kts 77°
2026-05-07 16:58 51.14704 -0.19857 210 ft 119 kts 77°
2026-05-07 16:58 51.14912 -0.18334 310 ft 153 kts 79°
2026-05-07 16:59 51.15164 -0.16662 788 ft 160 kts 78°
2026-05-07 16:59 51.15441 -0.14865 1197 ft 178 kts 79°
2026-05-07 16:59 51.15738 -0.12869 1626 ft 191 kts 79°
2026-05-07 16:59 51.16026 -0.10704 1994 ft 209 kts 81°
2026-05-07 17:00 51.16329 -0.08306 2311 ft 230 kts 76°
2026-05-07 17:00 51.17100 -0.06016 2622 ft 238 kts 46°
2026-05-07 17:00 51.18486 -0.04643 2678 ft 238 kts 14°
2026-05-07 17:00 51.20134 -0.04629 3022 ft 240 kts 347°
2026-05-07 17:01 51.21623 -0.05717 4078 ft 232 kts 318°
2026-05-07 17:01 51.22555 -0.07785 5159 ft 234 kts 290°
2026-05-07 17:01 51.22747 -0.10368 6100 ft 238 kts 261°
2026-05-07 17:01 51.22423 -0.13014 6862 ft 252 kts 258°
2026-05-07 17:02 51.22069 -0.15868 7438 ft 270 kts 258°
2026-05-07 17:02 51.21719 -0.18800 8371 ft 273 kts 257°
2026-05-07 17:02 51.21370 -0.21800 9368 ft 277 kts 257°
2026-05-07 17:02 51.21021 -0.24840 10315 ft 281 kts 257°
2026-05-07 17:03 51.20664 -0.27929 11152 ft 286 kts 257°
2026-05-07 17:03 51.20302 -0.31064 12036 ft 289 kts 257°
2026-05-07 17:03 51.19935 -0.34242 12887 ft 293 kts 257°
2026-05-07 17:03 51.19544 -0.37459 13740 ft 298 kts 256°
2026-05-07 17:04 51.19118 -0.40714 14528 ft 301 kts 256°
2026-05-07 17:04 51.18683 -0.43984 15352 ft 302 kts 256°
2026-05-07 17:04 51.18246 -0.47275 16133 ft 305 kts 256°
2026-05-07 17:04 51.17807 -0.50593 16924 ft 307 kts 257°
2026-05-07 17:05 51.17272 -0.53861 17692 ft 309 kts 250°
2026-05-07 17:05 51.16454 -0.57057 18355 ft 316 kts 246°
2026-05-07 17:05 51.15559 -0.60377 18534 ft 336 kts 246°
2026-05-07 17:05 51.14616 -0.63904 18705 ft 355 kts 246°
2026-05-07 17:06 51.13631 -0.67596 19067 ft 366 kts 246°
2026-05-07 17:06 51.12632 -0.71339 19722 ft 368 kts 246°
2026-05-07 17:06 51.11626 -0.75108 20364 ft 371 kts 246°
2026-05-07 17:06 51.10608 -0.78913 21001 ft 374 kts 246°
2026-05-07 17:07 51.09581 -0.82745 21615 ft 378 kts 246°
2026-05-07 17:07 51.08542 -0.86612 22232 ft 381 kts 246°
2026-05-07 17:07 51.07492 -0.90512 22685 ft 386 kts 246°
2026-05-07 17:07 51.06433 -0.94435 22799 ft 385 kts 246°
2026-05-07 17:08 51.05386 -0.98315 22921 ft 386 kts 246°
2026-05-07 17:08 51.04326 -1.02230 23031 ft 387 kts 246°
2026-05-07 17:08 51.03261 -1.06158 23042 ft 387 kts 246°
2026-05-07 17:08 51.02195 -1.10083 23042 ft 387 kts 246°
2026-05-07 17:09 51.01125 -1.14012 23048 ft 387 kts 246°
2026-05-07 17:09 51.00059 -1.17925 23047 ft 387 kts 246°
2026-05-07 17:09 50.98988 -1.21849 23045 ft 387 kts 246°
2026-05-07 17:09 50.97915 -1.25772 23049 ft 387 kts 246°
2026-05-07 17:10 50.96842 -1.29621 23044 ft 386 kts 243°
2026-05-07 17:10 50.95366 -1.33168 23043 ft 387 kts 229°
2026-05-07 17:10 50.93375 -1.36041 23047 ft 388 kts 215°
2026-05-07 17:10 50.91015 -1.38134 23051 ft 389 kts 207°
2026-05-07 17:11 50.88594 -1.40052 23049 ft 389 kts 208°
2026-05-07 17:11 50.86177 -1.41973 23043 ft 388 kts 207°
2026-05-07 17:11 50.83765 -1.43892 23049 ft 388 kts 207°
2026-05-07 17:11 50.81356 -1.45808 23051 ft 388 kts 207°
2026-05-07 17:12 50.78940 -1.47730 23047 ft 388 kts 207°
2026-05-07 17:12 50.76532 -1.49642 23047 ft 388 kts 207°
2026-05-07 17:12 50.74934 -1.50910 23043 ft 388 kts 207°
2026-05-07 17:12 50.72521 -1.52824 23041 ft 388 kts 207°
2026-05-07 17:13 50.70107 -1.54734 23038 ft 388 kts 207°
2026-05-07 17:13 50.67694 -1.56643 23042 ft 388 kts 207°
2026-05-07 17:13 50.65280 -1.58550 23040 ft 388 kts 207°
2026-05-07 17:13 50.62867 -1.60455 23041 ft 388 kts 207°
2026-05-07 17:14 50.60410 -1.62394 23033 ft 404 kts 207°
2026-05-07 17:14 50.57842 -1.64418 23037 ft 421 kts 207°
2026-05-07 17:14 50.55169 -1.66519 23035 ft 436 kts 207°
2026-05-07 17:14 50.52443 -1.68659 23033 ft 450 kts 207°
2026-05-07 17:15 50.49626 -1.70866 23026 ft 453 kts 207°
2026-05-07 17:15 50.46797 -1.73078 23029 ft 452 kts 207°
2026-05-07 17:15 50.43979 -1.75281 23033 ft 452 kts 207°
2026-05-07 17:15 50.41160 -1.77482 23026 ft 452 kts 207°
2026-05-07 17:16 50.38343 -1.79679 23035 ft 451 kts 207°
2026-05-07 17:16 50.35535 -1.81867 23027 ft 451 kts 207°
2026-05-07 17:16 50.32721 -1.84056 23030 ft 451 kts 207°
2026-05-07 17:16 50.29912 -1.86240 23026 ft 451 kts 207°
2026-05-07 17:17 50.27149 -1.88383 23023 ft 433 kts 207°
2026-05-07 17:17 50.24518 -1.90420 22996 ft 412 kts 207°
2026-05-07 17:17 50.22015 -1.92357 22608 ft 401 kts 207°
2026-05-07 17:17 50.14257 -1.98350 20863 ft 381 kts 207°
2026-05-07 17:18 50.04995 -2.05473 18929 ft 358 kts 207°
2026-05-07 17:18 49.95941 -2.11467 17410 ft 359 kts 193°
2026-05-07 17:18 49.86260 -2.14746 16356 ft 353 kts 193°
2026-05-07 17:18 49.78410 -2.17422 15524 ft 349 kts 193°
2026-05-07 17:19 49.76041 -2.18227 15271 ft 348 kts 193°
2026-05-07 17:19 49.73680 -2.19028 15025 ft 347 kts 193°
2026-05-07 17:19 49.71320 -2.19829 14774 ft 347 kts 194°
2026-05-07 17:19 49.68989 -2.20802 14344 ft 349 kts 197°
2026-05-07 17:20 49.66640 -2.21857 13562 ft 355 kts 197°
2026-05-07 17:20 49.64249 -2.22932 12764 ft 358 kts 197°
2026-05-07 17:20 49.61870 -2.23997 12173 ft 354 kts 197°
2026-05-07 17:20 49.59551 -2.25032 11649 ft 348 kts 197°
2026-05-07 17:21 49.57237 -2.26063 11095 ft 344 kts 196°
2026-05-07 17:21 49.54947 -2.27070 10578 ft 339 kts 195°
2026-05-07 17:21 49.52734 -2.27978 10365 ft 318 kts 195°
2026-05-07 17:21 49.50665 -2.28802 10175 ft 297 kts 194°
2026-05-07 17:22 49.48732 -2.29572 9970 ft 278 kts 194°
2026-05-07 17:22 49.46888 -2.30312 9488 ft 272 kts 194°
2026-05-07 17:22 49.41774 -2.32373 7758 ft 267 kts 194°
2026-05-07 17:22 49.36750 -2.34399 6069 ft 263 kts 194°
2026-05-07 17:23 49.34986 -2.35110 5481 ft 261 kts 194°
2026-05-07 17:23 49.33234 -2.35815 4896 ft 260 kts 193°
2026-05-07 17:23 49.28836 -2.37583 3448 ft 254 kts 193°
2026-05-07 17:23 49.26860 -2.38376 3290 ft 252 kts 193°
2026-05-07 17:24 49.24561 -2.39298 3157 ft 250 kts 193°
2026-05-07 17:24 49.22355 -2.40117 3004 ft 231 kts 183°
2026-05-07 17:24 49.20854 -2.39685 2963 ft 216 kts 151°
2026-05-07 17:24 49.19854 -2.38066 2792 ft 212 kts 116°
2026-05-07 17:25 49.19537 -2.35866 2543 ft 215 kts 94°
2026-05-07 17:25 49.19613 -2.33577 2267 ft 218 kts 86°
2026-05-07 17:25 49.19834 -2.31244 1832 ft 226 kts 86°
2026-05-07 17:25 49.20027 -2.28894 1399 ft 221 kts 84°
2026-05-07 17:26 49.20204 -2.26653 1117 ft 202 kts 84°
2026-05-07 17:26 49.20371 -2.24670 840 ft 175 kts 85°
2026-05-07 17:26 49.20519 -2.22946 627 ft 153 kts 82°
2026-05-07 17:26 49.20648 -2.21447 384 ft 132 kts 83°
2026-05-07 17:27 49.20751 -2.20122 279 ft 117 kts 82°
2026-05-07 17:27 49.20819 -2.19304 283 ft 34 kts 84°
2026-05-07 17:27 49.20793 -2.19032 282 ft 26 kts 108°
2026-05-07 17:27 49.20746 -2.18864 282 ft 13 kts 133°
2026-05-07 17:28 49.20700 -2.18904 282 ft 10 kts 246°
2026-05-07 17:28 49.20688 -2.19035 281 ft 16 kts 263°
2026-05-07 17:28 49.20686 -2.19240 281 ft 21 kts 285°
2026-05-07 17:28 49.20704 -2.19476 281 ft 24 kts 260°
2026-05-07 17:29 49.20649 -2.19662 280 ft 12 kts 209°
2026-05-07 17:29 49.20602 -2.19661 280 ft 5 kts 156°
2026-05-07 17:29 49.20578 -2.19647 283 ft 1 kts 159°
2026-05-07 17:29 49.20569 -2.19642 280 ft 1 kts 159°
2026-05-07 17:30 49.20567 -2.19641 280 ft 0 kts 160°